Location: Newark
(20.0000°S, 47.0000°E)
Time: 16:19:48
(UTC+00:00)

Envisat - Pass Details

Date: 24 June 2019
Orbit: 764 x 766 km, 98.1° (Epoch: 17 July)

Event Time Altitude Azimuth Distance (km) Brightness Sun altitude
Rises 02:50:56 0° 34° (NE) 3,211 7.3 -8.6°
Reaches altitude 10° 02:53:25 10° 44° (NE) 2,292 6.7 -8.0°
Maximum altitude 02:57:53 32° 106° (ESE) 1,288 4.8 -7.0°
Drops below altitude 10° 03:02:23 10° 168° (SSE) 2,314 5.4 -6.1°
Sets 03:04:54 0° 177° (S) 3,247 6.0 -5.5°
